Погода в Вильнюсе

Погода в Вильнюсе : погода сейчас, прогноз погоды и архив. Всё, что Вы хотите узнать о погоде в Вильнюсе!

Поиск расширенной информации на нашем сайте:

Другие новости

Новости СМИ2

Главная страница сайта

Новости сайта

03.07.2017

Напоминаем, что на нашем специализированном сайте Метеоцентр.Азия вы можете получить высокодетализированные автоматические прогнозы погоды по пунктам России, СНГ и мира в авиационном формате (включающие направление и скорость ветра, видимость, явления погоды, количество и форму облачности, нижнюю и верхнюю границу облачности).


Погода в Вильнюсе - сегодня

Время (UTC), дата Ветер
(°,м/с) 
Видим.   Явления Облачность Т
(°С)
Тd
(°С)
f(%) Тe
(°С)
Pmin
(гПа)
dP
(гПа)
Po
(мм)
O2
(г/м3)
Тmin Tmax R s Состояние
почвы
12 13.07.18 040 (СВ) 1-3{04}  20000 м    8/5 1500 м средняя 
[Cu med, cong|Ac trans]
+22 +14.5 62 +30  1010.1  -1.1  744  274           
15 13.07.18 300 (СЗ) 2-4{08}  20000 м    8/6 1200 м средняя 
[Cu med, cong|Ac As]
+21.2 +15.5 70 +31  1009.9  -0.2  744  275           
18 13.07.18 130 (ЮВ) 1-3{06}  5000 м  гроза, ливневой дождь  10/10 2000 м кучево-дожд. 
[Cb cap]
+15.9 +14.5 91 +25  1010.2  744  280    +24     
21 13.07.18 тихо () -2{04}  16000 м  в посл. час дождь{гроза, ливн. осадки}  10/8 870 м средняя 
[Sc|Ac As]
+15.4 +14.7 96 +24  1010.4  0.1  744  281           
00 14.07.18 тихо () -2{03}  9000 м  дымка{гроза, ливн. осадки}  10/10 800 м 
[Sc]
+15.4 +14.7 96 +24  1009.2  -1.1  743  280         
03 14.07.18 340 (С) 1-2{02}  0900 м  туман  ?/?  
+15.8 +15.1 96 +26  1008.7  -0.5  743  280           
06 14.07.18 тихо () -2{03}  15000 м  {туман}  10/10 360 м 
[St]
+16.8 +15.9 94 +27  1008.7  0.1  743  278  +15.1      влажная 
09 14.07.18 тихо () -2{03}  20000 м    6/6 900 м 
[Cu med, cong]
+19.5 +16.2 81 +31  1008.7  0.2  743  276           
12 14.07.18 050 (СВ) 1-4{05}  19000 м    6/3 800 м средняя 
[Cu med, cong|Ac trans]
+23.1 +15.5 62 +33  1007.8  -0.8  742  273           
15 14.07.18 070 (В) 2-5{06}  6000 м  сильн. ливневой дождь  10/10 800 м кучево-дожд. 
[Cb calv]
+20.1 +17.7 86 +34  1007.8  -0.2  742  275           
18 14.07.18 340 (С) 2-3{07}  13000 м  слаб. дождь{гроза, ливн. осадки}  10/10 720 м 
[Ns]
+18.3 +16.9 92 +31  1008.5  0.6  743  277    +23.3  13     
21 14.07.18 320 (СЗ) 2-3{04}  12000 м  в посл. час дождь  9/0 средняя 
[Ac As]
+16.8 +15.8 94 +28  1009.6  743  279           
00 15.07.18 тихо () -3{05}  12000 м  слаб. дождь  10/0 средняя 
[As op]
+16.5 +15.7 95 +27  1009.4  -0.2  743  279         
03 15.07.18 350 (С) 1-2{04}  18000 м  слаб. дождь  10/10 600 м 
[Ns]
+15.6 +15.1 97 +26  1009.5  0.1  743  280           
06 15.07.18 320 (СЗ) 1-3{05}  15000 м  {дождь}  10/10 60 м 
[St]
+16.9 +16.2 96 +29  1009.7  0.2  743  279  +15.5    11    мокрая 
09 15.07.18 360 (С) 2-4{06}  20000 м    9/9 480 м 
[Cu Sc]
+20.3 +17.4 83 +34  1009.9  0.5  744  275           
12 15.07.18 360 (С) 2-4{06}  20000 м  гроза, ливневой дождь  9/6 2000 м кучево-дожд., средняя, верхняя 
[Cb cap|Ac cuf|Ci ing]
+20.9 +18 83 +36  1009.7  -0.2  744  274      0.6     
15 15.07.18 340 (С) 1-3{06}  20000 м  {гроза, дождь}  9/6 2000 м средняя, верхняя 
[Cu med, cong|Ac cuf|Ci ing]
+20.6 +16.9 79 +33  1009  -0.7  743  275           
18 15.07.18 330 (СЗ) 1-3{04}  20000 м  {гроза, дождь}  6/3 2000 м средняя, верхняя 
[Cu med, cong|Ac cuf|Ci ing]
+21.4 +18.2 82 +36  1009.7  0.7  744  274    +22.6  0.6     
21 15.07.18 330 (СЗ) 1-2{04}  20000 м    9/0 верхняя 
[Ci ing]
+19.4 +17.6 89 +35  1009.8  744  276           
00 16.07.18 350 (С) 1-2{03}  20000 м  в посл. час дождь  9/9 1230 м 
[Sc]
+18.6 +17.1 91 +33  1009.8  -0.1  744  277      0.0     
03 16.07.18 020 (С) 1-4{06}  19000 м  в посл. час дождь  10/6 2000 м средняя 
[Sc|Ac As]
+18.4 +17.4 94 +33  1009.9  0.1  744  277           
06 16.07.18 030 (СВ) 2-5{05}  20000 м  {дождь}  10/0 средняя 
[Ac As]
+19.1 +17.7 92 +34  1010.2  0.4  744  276  +18.2    0.5    влажная 
09 16.07.18 020 (С) 3-7{07}  20000 м  в посл. час дождь  9/6 1000 м средняя 
[Sc|As op]
+22.3 +18.7 80 +38  1009.7  -0.3  744  273           
12 16.07.18 350 (С) 1-4{06}  20000 м  {дождь}  8/6 960 м средняя 
[Cu med, cong|Ac cuf]
+23.2 +19 77 +40  1009.3  -0.4  743  272      0.0     
Время (UTC), дата Ветер
(°,м/с) 
Видим.   Явления Облачность Т
(°С)
Тd
(°С)
f(%) Тe
(°С)
Pmin
(гПа)
dP
(гПа)
Po
(мм)
O2
(г/м3)
Тmin Tmax R s Состояние
почвы

Для получения пояснительной информации подведите курсор к названию столбца.

ПОГОДА в Вильнюсе - архив

Всё, что Вы хотите узнать о погоде в Вильнюсе - удобно и подробно!

Выберите нужную дату (начиная с 1 января 2015* года) и нажмите кнопку "Найти".
Будут отображены архивные сводки погоды по пункту Вильнюс, начиная с указанной даты.


Отображать данные в формате CSV (для использования в таблицах Excel)


Внимание! Наш архив погоды предназначен исключительно для личного некоммерческого использования в познавательных целях. Если Вам необходимы официальные справки о состоянии погоды (для производственных, юридических, коммерческих и т.п. целей), обращайтесь в органы Росгидромета.

*Примечание: данная дата относится к архиву по метеостанциям СССР (Россия, СНГ, Балтия).
Архив по метеостанциям Зарубежной Европы и Азии (кроме Китая) хранится 10 дней, по другим регионам земного шара (Китай, Африка, Америка, Австралия, Океания) - 1 день.

Вильнюс - район местоположения метеостанции


Название, широта, долгота, высота метеостанции:
Вильнюс 54.6°ш. 25.1°д. 156 м над ур. моря [Литва]

Дополнительная информация

В oтличие oт бoльшинства пoгoдных сайтoв мы публикуем пoдрoбную метеoинфoрмацию в детальнoм прoфессиoнальнoм фoрмате.

Характеристики температуры и влажнoсти вoздуха измеряются на высoте 2 м в тени вдали oт зданий и деревьев.
Скoрoсть ветра измеряется на высoте 10 м (на урoвне рoста челoвека скoрoсть ветра ниже в 1.5-2 раза). Если метеoстанция нахoдится в гoрoде или в лесу, тo скoрoсть ветра занижена на 2-4 м/с пo сравнению с oткрытым местoм. Скoрoсть ветра над акватoриями крупных рек и oзёр, а также на вершинах хoлмoв на 2-5 м/с выше, чем в oбычных услoвиях.
Атмoсфернoе давление в разных тoчках местнoсти мoжет значительнo oтличаться oт давления на метеoстанции, в зависимoсти oт услoвий рельефа (при пoдъёме на 10 м давление пoнижается примернo на 1 мм рт.ст.).